Time,TemperatureF,DewpointF,PressureIn,WindDirection,WindDirectionDegrees,WindSpeedMPH,WindSpeedGustMPH,Humidity,HourlyPrecipIn,Conditions,Clouds,dailyrainin,SolarRadiationWatts/m^2,SoftwareType,DateUTC
2013-06-02 00:00:00,55.5,51.7,29.89,North,0,4.0,4.0,87,0.00,,,0.00,0,Wunderground v.1.15,2013-06-02 07:00:00,
2013-06-02 00:05:00,55.5,51.7,29.89,North,0,0.0,4.0,87,0.00,,,0.00,0,Wunderground v.1.15,2013-06-02 07:05:00,
2013-06-02 00:15:00,55.3,51.8,29.89,NNW,339,4.0,4.0,88,0.00,,,0.00,0,Wunderground v.1.15,2013-06-02 07:15:00,
2013-06-02 00:20:00,55.2,51.4,29.89,NNW,339,2.0,4.0,87,0.00,,,0.00,0,Wunderground v.1.15,2013-06-02 07:20:00,
2013-06-02 00:30:00,54.3,50.8,29.89,WNW,302,0.0,4.0,88,0.00,,,0.00,0,Wunderground v.1.15,2013-06-02 07:30:00,
2013-06-02 00:40:00,53.1,50.5,29.89,WNW,302,2.0,4.0,91,0.00,,,0.00,0,Wunderground v.1.15,2013-06-02 07:40:00,
2013-06-02 00:50:00,51.5,48.7,29.89,SW,219,3.0,4.0,90,0.00,,,0.00,0,Wunderground v.1.15,2013-06-02 07:50:00,
2013-06-02 01:00:00,49.8,47.6,29.89,SW,219,2.0,4.0,92,0.00,,,0.00,0,Wunderground v.1.15,2013-06-02 08:00:00,
2013-06-02 01:05:00,49.6,47.4,29.89,SW,219,0.0,4.0,92,0.00,,,0.00,0,Wunderground v.1.15,2013-06-02 08:05:00,
2013-06-02 01:15:00,49.0,47.3,29.88,SW,219,0.0,4.0,94,0.00,,,0.00,0,Wunderground v.1.15,2013-06-02 08:15:00,
2013-06-02 01:20:00,49.1,47.4,29.88,SW,219,0.0,4.0,94,0.00,,,0.00,0,Wunderground v.1.15,2013-06-02 08:20:00,
2013-06-02 01:30:00,48.8,47.4,29.88,SW,219,1.0,4.0,95,0.00,,,0.00,0,Wunderground v.1.15,2013-06-02 08:30:00,
2013-06-02 01:40:00,48.0,46.1,29.88,SW,219,0.0,4.0,93,0.00,,,0.00,0,Wunderground v.1.15,2013-06-02 08:40:00,
2013-06-02 01:50:00,46.8,45.7,29.88,SW,219,0.0,4.0,96,0.00,,,0.00,0,Wunderground v.1.15,2013-06-02 08:50:00,
2013-06-02 02:00:00,46.3,45.2,29.88,SW,219,0.0,4.0,96,0.00,,,0.00,0,Wunderground v.1.15,2013-06-02 09:00:00,
2013-06-02 02:10:00,45.7,44.9,29.87,SSW,201,4.0,4.0,97,0.00,,,0.00,0,Wunderground v.1.15,2013-06-02 09:10:00,
2013-06-02 02:20:00,45.2,44.4,29.87,SSW,198,1.0,4.0,97,0.00,,,0.00,0,Wunderground v.1.15,2013-06-02 09:20:00,
2013-06-02 02:30:00,44.9,44.4,29.87,SSW,210,2.0,4.0,98,0.00,,,0.00,0,Wunderground v.1.15,2013-06-02 09:30:00,
2013-06-02 02:40:00,44.4,44.1,29.87,SW,229,2.0,4.0,99,0.00,,,0.00,0,Wunderground v.1.15,2013-06-02 09:40:00,
2013-06-02 02:50:00,44.1,43.8,29.87,SW,229,2.0,4.0,99,0.00,,,0.00,0,Wunderground v.1.15,2013-06-02 09:50:00,
2013-06-02 03:00:00,43.2,42.9,29.87,SW,229,3.0,4.0,99,0.00,,,0.00,0,Wunderground v.1.15,2013-06-02 10:00:00,
2013-06-02 03:10:00,43.1,43.1,29.86,SW,229,2.0,4.0,100,0.00,,,0.00,0,Wunderground v.1.15,2013-06-02 10:10:00,
2013-06-02 03:20:00,43.5,43.2,29.86,SW,229,0.0,4.0,99,0.00,,,0.00,0,Wunderground v.1.15,2013-06-02 10:20:00,
2013-06-02 03:30:00,42.6,42.3,29.86,SW,229,0.0,4.0,99,0.00,,,0.00,0,Wunderground v.1.15,2013-06-02 10:30:00,
2013-06-02 03:40:00,41.8,41.8,29.86,SW,229,2.0,4.0,100,0.00,,,0.00,0,Wunderground v.1.15,2013-06-02 10:40:00,
2013-06-02 03:50:00,41.5,41.5,29.86,SW,227,0.0,4.0,100,0.00,,,0.00,0,Wunderground v.1.15,2013-06-02 10:50:00,
2013-06-02 04:00:00,41.3,41.3,29.85,SW,227,0.0,4.0,100,0.00,,,0.00,0,Wunderground v.1.15,2013-06-02 11:00:00,
2013-06-02 04:05:00,41.1,41.1,29.86,SW,227,0.0,4.0,100,0.00,,,0.00,0,Wunderground v.1.15,2013-06-02 11:05:00,
2013-06-02 04:15:00,40.3,40.3,29.86,SW,227,0.0,4.0,100,0.00,,,0.00,0,Wunderground v.1.15,2013-06-02 11:15:00,
2013-06-02 04:20:00,40.1,40.1,29.86,SW,227,0.0,4.0,100,0.00,,,0.00,0,Wunderground v.1.15,2013-06-02 11:20:00,
2013-06-02 04:30:00,40.0,40.0,29.86,SW,227,0.0,4.0,100,0.00,,,0.00,0,Wunderground v.1.15,2013-06-02 11:30:00,
2013-06-02 04:40:00,39.6,39.6,29.85,SW,224,0.0,4.0,100,0.00,,,0.00,0,Wunderground v.1.15,2013-06-02 11:40:00,
2013-06-02 04:50:00,39.4,39.4,29.85,SW,226,2.0,4.0,100,0.00,,,0.00,0,Wunderground v.1.15,2013-06-02 11:50:00,
2013-06-02 05:00:00,39.4,39.4,29.86,SW,226,0.0,4.0,100,0.00,,,0.00,0,Wunderground v.1.15,2013-06-02 12:00:00,
2013-06-02 05:10:00,39.0,39.0,29.86,SW,226,0.0,4.0,100,0.00,,,0.00,0,Wunderground v.1.15,2013-06-02 12:10:00,
2013-06-02 05:20:00,38.5,38.5,29.86,SW,226,0.0,4.0,100,0.00,,,0.00,0,Wunderground v.1.15,2013-06-02 12:20:00,
2013-06-02 05:30:00,37.9,37.9,29.86,SW,226,0.0,4.0,100,0.00,,,0.00,0,Wunderground v.1.15,2013-06-02 12:30:00,
2013-06-02 05:40:00,38.0,38.0,29.86,SW,226,0.0,4.0,100,0.00,,,0.00,0,Wunderground v.1.15,2013-06-02 12:40:00,
2013-06-02 05:50:00,38.3,38.3,29.86,NW,319,0.0,4.0,100,0.00,,,0.00,0,Wunderground v.1.15,2013-06-02 12:50:00,
2013-06-02 06:00:00,39.5,39.5,29.86,SW,232,2.0,4.0,100,0.00,,,0.00,0,Wunderground v.1.15,2013-06-02 13:00:00,
2013-06-02 06:10:00,41.1,41.1,29.86,SW,232,0.0,4.0,100,0.00,,,0.00,0,Wunderground v.1.15,2013-06-02 13:10:00,
2013-06-02 06:20:00,41.3,41.3,29.87,SW,231,0.0,4.0,100,0.00,,,0.00,0,Wunderground v.1.15,2013-06-02 13:20:00,
2013-06-02 06:30:00,43.0,42.2,29.87,SW,232,0.0,4.0,97,0.00,,,0.00,0,Wunderground v.1.15,2013-06-02 13:30:00,
2013-06-02 06:40:00,43.7,42.6,29.87,SW,233,0.0,4.0,96,0.00,,,0.00,0,Wunderground v.1.15,2013-06-02 13:40:00,
2013-06-02 06:50:00,45.3,44.2,29.87,SW,232,0.0,4.0,96,0.00,,,0.00,0,Wunderground v.1.15,2013-06-02 13:50:00,
2013-06-02 07:00:00,48.1,46.7,29.87,ESE,110,3.0,4.0,95,0.00,,,0.00,0,Wunderground v.1.15,2013-06-02 14:00:00,
2013-06-02 07:05:00,49.3,47.6,29.87,ESE,110,2.0,4.0,94,0.00,,,0.00,0,Wunderground v.1.15,2013-06-02 14:05:00,
2013-06-02 07:15:00,50.9,48.1,29.87,ESE,110,0.0,4.0,90,0.00,,,0.00,0,Wunderground v.1.15,2013-06-02 14:15:00,
2013-06-02 07:20:00,52.2,48.8,29.87,ESE,110,0.0,4.0,88,0.00,,,0.00,0,Wunderground v.1.15,2013-06-02 14:20:00,
2013-06-02 07:30:00,54.2,49.8,29.86,ESE,110,0.0,4.0,85,0.00,,,0.00,0,Wunderground v.1.15,2013-06-02 14:30:00,
2013-06-02 07:40:00,55.8,49.7,29.87,ESE,110,0.0,4.0,80,0.00,,,0.00,0,Wunderground v.1.15,2013-06-02 14:40:00,
2013-06-02 07:50:00,55.6,48.5,29.87,West,260,10.0,10.0,77,0.00,,,0.00,0,Wunderground v.1.15,2013-06-02 14:50:00,
2013-06-02 08:00:00,56.7,48.5,29.87,West,262,6.0,6.0,74,0.00,,,0.00,0,Wunderground v.1.15,2013-06-02 15:00:00,
2013-06-02 08:05:00,56.7,47.8,29.87,WSW,256,0.0,6.0,72,0.00,,,0.00,0,Wunderground v.1.15,2013-06-02 15:05:00,
2013-06-02 08:10:00,56.5,46.8,29.86,South,173,5.0,5.0,70,0.00,,,0.00,0,Wunderground v.1.15,2013-06-02 15:10:00,
2013-06-02 08:20:00,56.4,46.0,29.86,WSW,256,12.0,12.0,68,0.00,,,0.00,0,Wunderground v.1.15,2013-06-02 15:20:00,
2013-06-02 08:30:00,56.8,47.1,29.86,SSW,210,4.0,4.0,70,0.00,,,0.00,0,Wunderground v.1.15,2013-06-02 15:30:00,
2013-06-02 08:40:00,57.0,46.1,29.86,WSW,252,12.0,12.0,67,0.00,,,0.00,0,Wunderground v.1.15,2013-06-02 15:40:00,
2013-06-02 08:50:00,57.4,45.7,29.87,WSW,249,11.0,11.0,65,0.00,,,0.00,0,Wunderground v.1.15,2013-06-02 15:50:00,
2013-06-02 09:00:00,57.4,45.7,29.86,North,353,8.0,8.0,65,0.00,,,0.00,0,Wunderground v.1.15,2013-06-02 16:00:00,
2013-06-02 09:05:00,57.7,46.0,29.86,NNW,334,11.0,11.0,65,0.00,,,0.00,0,Wunderground v.1.15,2013-06-02 16:05:00,
2013-06-02 09:10:00,57.7,46.0,29.86,North,1,3.0,4.0,65,0.00,,,0.00,0,Wunderground v.1.15,2013-06-02 16:10:00,
2013-06-02 09:20:00,57.8,45.3,29.86,WNW,298,6.0,6.0,63,0.00,,,0.00,0,Wunderground v.1.15,2013-06-02 16:20:00,
2013-06-02 09:30:00,58.2,45.7,29.86,North,356,4.0,4.0,63,0.00,,,0.00,0,Wunderground v.1.15,2013-06-02 16:30:00,
2013-06-02 09:40:00,58.7,46.1,29.85,SW,228,2.0,4.0,63,0.00,,,0.00,0,Wunderground v.1.15,2013-06-02 16:40:00,
2013-06-02 09:50:00,59.8,46.3,29.85,WSW,243,7.0,7.0,61,0.00,,,0.00,0,Wunderground v.1.15,2013-06-02 16:50:00,
2013-06-02 10:00:00,59.8,46.3,29.86,SW,223,9.0,9.0,61,0.00,,,0.00,0,Wunderground v.1.15,2013-06-02 17:00:00,
2013-06-02 10:05:00,60.3,46.8,29.85,WSW,241,11.0,11.0,61,0.00,,,0.00,0,Wunderground v.1.15,2013-06-02 17:05:00,
2013-06-02 10:15:00,61.0,47.0,29.86,NNW,334,9.0,9.0,60,0.00,,,0.00,0,Wunderground v.1.15,2013-06-02 17:15:00,
2013-06-02 10:20:00,59.7,46.7,29.86,NNW,334,7.0,7.0,62,0.00,,,0.00,0,Wunderground v.1.15,2013-06-02 17:20:00,
2013-06-02 10:30:00,61.1,46.7,29.86,North,355,3.0,4.0,59,0.00,,,0.00,0,Wunderground v.1.15,2013-06-02 17:30:00,
2013-06-02 10:40:00,60.4,45.5,29.86,SSE,168,2.0,4.0,58,0.00,,,0.00,0,Wunderground v.1.15,2013-06-02 17:40:00,
2013-06-02 10:50:00,60.7,45.4,29.85,SSW,204,0.0,4.0,57,0.00,,,0.00,0,Wunderground v.1.15,2013-06-02 17:50:00,
2013-06-02 11:00:00,62.1,45.7,29.85,North,7,4.0,4.0,55,0.00,,,0.00,0,Wunderground v.1.15,2013-06-02 18:00:00,
2013-06-02 11:05:00,61.3,45.5,29.85,North,7,5.0,5.0,56,0.00,,,0.00,0,Wunderground v.1.15,2013-06-02 18:05:00,
2013-06-02 11:10:00,62.2,45.8,29.85,WSW,254,10.0,10.0,55,0.00,,,0.00,0,Wunderground v.1.15,2013-06-02 18:10:00,
2013-06-02 11:20:00,61.5,45.7,29.85,SW,214,1.0,4.0,56,0.00,,,0.00,0,Wunderground v.1.15,2013-06-02 18:20:00,
2013-06-02 11:30:00,62.7,45.8,29.85,WSW,240,3.0,4.0,54,0.00,,,0.00,0,Wunderground v.1.15,2013-06-02 18:30:00,
2013-06-02 11:40:00,62.4,45.5,29.85,NNW,329,3.0,4.0,54,0.00,,,0.00,0,Wunderground v.1.15,2013-06-02 18:40:00,
2013-06-02 11:50:00,62.9,45.5,29.85,North,0,1.0,4.0,53,0.00,,,0.00,0,Wunderground v.1.15,2013-06-02 18:50:00,
2013-06-02 12:00:00,64.2,46.2,29.85,WSW,240,4.0,4.0,52,0.00,,,0.00,0,Wunderground v.1.15,2013-06-02 19:00:00,
2013-06-02 12:10:00,64.0,45.5,29.85,NW,318,1.0,4.0,51,0.00,,,0.00,0,Wunderground v.1.15,2013-06-02 19:10:00,
2013-06-02 12:20:00,64.2,45.7,29.84,SE,130,4.0,4.0,51,0.00,,,0.00,0,Wunderground v.1.15,2013-06-02 19:20:00,
2013-06-02 12:30:00,64.2,45.7,29.84,NNW,333,6.0,6.0,51,0.00,,,0.00,0,Wunderground v.1.15,2013-06-02 19:30:00,
2013-06-02 12:40:00,65.4,45.7,29.84,NW,314,1.0,4.0,49,0.00,,,0.00,0,Wunderground v.1.15,2013-06-02 19:40:00,
2013-06-02 12:50:00,65.8,46.1,29.84,SW,219,3.0,4.0,49,0.00,,,0.00,0,Wunderground v.1.15,2013-06-02 19:50:00,
2013-06-02 13:00:00,65.5,45.3,29.84,SW,220,4.0,4.0,48,0.00,,,0.00,0,Wunderground v.1.15,2013-06-02 20:00:00,
2013-06-02 13:05:00,66.0,45.7,29.84,WNW,284,6.0,6.0,48,0.00,,,0.00,0,Wunderground v.1.15,2013-06-02 20:05:00,
2013-06-02 13:15:00,66.0,44.6,29.83,NNE,20,5.0,5.0,46,0.00,,,0.00,0,Wunderground v.1.15,2013-06-02 20:15:00,
2013-06-02 13:20:00,66.0,45.2,29.83,WSW,243,12.0,12.0,47,0.00,,,0.00,0,Wunderground v.1.15,2013-06-02 20:20:00,
2013-06-02 13:30:00,66.1,44.1,29.83,NNW,348,6.0,6.0,45,0.00,,,0.00,0,Wunderground v.1.15,2013-06-02 20:30:00,
2013-06-02 13:40:00,66.8,44.8,29.83,SW,222,8.0,8.0,45,0.00,,,0.00,0,Wunderground v.1.15,2013-06-02 20:40:00,
2013-06-02 13:50:00,67.1,44.4,29.83,WSW,240,9.0,9.0,44,0.00,,,0.00,0,Wunderground v.1.15,2013-06-02 20:50:00,
2013-06-02 14:00:00,67.6,44.9,29.83,WSW,258,15.0,15.0,44,0.00,,,0.00,0,Wunderground v.1.15,2013-06-02 21:00:00,
2013-06-02 14:05:00,66.7,44.1,29.83,NNW,333,2.0,15.0,44,0.00,,,0.00,0,Wunderground v.1.15,2013-06-02 21:05:00,
2013-06-02 14:10:00,67.3,45.2,29.83,South,173,2.0,4.0,45,0.00,,,0.00,0,Wunderground v.1.15,2013-06-02 21:10:00,
2013-06-02 14:20:00,68.0,44.0,29.83,West,272,1.0,4.0,42,0.00,,,0.00,0,Wunderground v.1.15,2013-06-02 21:20:00,
2013-06-02 14:30:00,68.3,44.3,29.82,WSW,247,7.0,7.0,42,0.00,,,0.00,0,Wunderground v.1.15,2013-06-02 21:30:00,
2013-06-02 14:40:00,69.0,44.3,29.82,SW,235,7.0,7.0,41,0.00,,,0.00,0,Wunderground v.1.15,2013-06-02 21:40:00,
2013-06-02 14:50:00,69.2,43.8,29.82,WNW,282,7.0,7.0,40,0.00,,,0.00,0,Wunderground v.1.15,2013-06-02 21:50:00,
2013-06-02 15:00:00,69.7,44.9,29.83,North,3,7.0,7.0,41,0.00,,,0.00,0,Wunderground v.1.15,2013-06-02 22:00:00,
2013-06-02 15:05:00,69.9,44.5,29.83,West,271,10.0,10.0,40,0.00,,,0.00,0,Wunderground v.1.15,2013-06-02 22:05:00,
2013-06-02 15:15:00,68.8,43.5,29.83,SW,222,6.0,14.0,40,0.00,,,0.00,0,Wunderground v.1.15,2013-06-02 22:15:00,
2013-06-02 15:20:00,69.7,42.9,29.83,WSW,254,14.0,14.0,38,0.00,,,0.00,0,Wunderground v.1.15,2013-06-02 22:20:00,
2013-06-02 15:30:00,69.3,42.6,29.83,SSW,199,6.0,6.0,38,0.00,,,0.00,0,Wunderground v.1.15,2013-06-02 22:30:00,
2013-06-02 15:40:00,69.1,41.0,29.83,WSW,244,10.0,10.0,36,0.00,,,0.00,0,Wunderground v.1.15,2013-06-02 22:40:00,
2013-06-02 15:50:00,69.5,42.1,29.83,NNE,26,5.0,5.0,37,0.00,,,0.00,0,Wunderground v.1.15,2013-06-02 22:50:00,
2013-06-02 16:00:00,69.8,43.0,29.83,WSW,243,12.0,12.0,38,0.00,,,0.00,0,Wunderground v.1.15,2013-06-02 23:00:00,
2013-06-02 16:05:00,69.8,42.3,29.83,West,268,9.0,12.0,37,0.00,,,0.00,0,Wunderground v.1.15,2013-06-02 23:05:00,
2013-06-02 16:15:00,69.3,43.3,29.83,West,278,19.0,19.0,39,0.00,,,0.00,0,Wunderground v.1.15,2013-06-02 23:15:00,
2013-06-02 16:20:00,69.4,43.4,29.83,WSW,244,13.0,13.0,39,0.00,,,0.00,0,Wunderground v.1.15,2013-06-02 23:20:00,
2013-06-02 16:30:00,69.5,42.8,29.83,SW,235,3.0,4.0,38,0.00,,,0.00,0,Wunderground v.1.15,2013-06-02 23:30:00,
2013-06-02 16:40:00,69.0,43.7,29.83,WSW,254,15.0,15.0,40,0.00,,,0.00,0,Wunderground v.1.15,2013-06-02 23:40:00,
2013-06-02 16:50:00,68.9,42.9,29.83,WSW,243,9.0,9.0,39,0.00,,,0.00,0,Wunderground v.1.15,2013-06-02 23:50:00,
2013-06-02 17:00:00,68.5,43.9,29.83,SW,230,13.0,13.0,41,0.00,,,0.00,0,Wunderground v.1.15,2013-06-03 00:00:00,
2013-06-02 17:10:00,68.8,44.1,29.82,West,271,11.0,11.0,41,0.00,,,0.00,0,Wunderground v.1.15,2013-06-03 00:10:00,
2013-06-02 17:20:00,68.8,46.0,29.82,WSW,250,13.0,13.0,44,0.00,,,0.00,0,Wunderground v.1.15,2013-06-03 00:20:00,
2013-06-02 17:30:00,68.8,45.4,29.82,NNW,331,12.0,12.0,43,0.00,,,0.00,0,Wunderground v.1.15,2013-06-03 00:30:00,
2013-06-02 17:40:00,67.8,45.1,29.83,West,275,6.0,6.0,44,0.00,,,0.00,0,Wunderground v.1.15,2013-06-03 00:40:00,
2013-06-02 17:50:00,67.7,46.7,29.83,West,264,7.0,7.0,47,0.00,,,0.00,0,Wunderground v.1.15,2013-06-03 00:50:00,
2013-06-02 18:00:00,67.7,46.2,29.83,West,267,6.0,6.0,46,0.00,,,0.00,0,Wunderground v.1.15,2013-06-03 01:00:00,
2013-06-02 18:05:00,67.6,46.1,29.83,SW,231,11.0,11.0,46,0.00,,,0.00,0,Wunderground v.1.15,2013-06-03 01:05:00,
2013-06-02 18:15:00,67.3,45.8,29.83,North,9,4.0,7.0,46,0.00,,,0.00,0,Wunderground v.1.15,2013-06-03 01:15:00,
2013-06-02 18:20:00,66.8,47.0,29.84,WSW,252,13.0,13.0,49,0.00,,,0.00,0,Wunderground v.1.15,2013-06-03 01:20:00,
2013-06-02 18:30:00,66.7,45.8,29.84,SW,224,5.0,5.0,47,0.00,,,0.00,0,Wunderground v.1.15,2013-06-03 01:30:00,
2013-06-02 18:40:00,66.3,47.1,29.84,WNW,301,7.0,7.0,50,0.00,,,0.00,0,Wunderground v.1.15,2013-06-03 01:40:00,
2013-06-02 18:50:00,65.5,47.4,29.84,NW,321,8.0,8.0,52,0.00,,,0.00,0,Wunderground v.1.15,2013-06-03 01:50:00,
2013-06-02 19:00:00,65.1,47.0,29.84,West,277,5.0,5.0,52,0.00,,,0.00,0,Wunderground v.1.15,2013-06-03 02:00:00,
2013-06-02 19:05:00,65.0,46.4,29.84,WNW,294,2.0,5.0,51,0.00,,,0.00,0,Wunderground v.1.15,2013-06-03 02:05:00,
2013-06-02 19:10:00,64.6,46.6,29.85,SW,233,7.0,7.0,52,0.00,,,0.00,0,Wunderground v.1.15,2013-06-03 02:10:00,
2013-06-02 19:20:00,64.1,46.1,29.85,NW,323,4.0,4.0,52,0.00,,,0.00,0,Wunderground v.1.15,2013-06-03 02:20:00,
2013-06-02 19:30:00,64.1,46.6,29.86,North,11,10.0,10.0,53,0.00,,,0.00,0,Wunderground v.1.15,2013-06-03 02:30:00,
2013-06-02 19:40:00,63.0,46.1,29.86,SSW,201,1.0,4.0,54,0.00,,,0.00,0,Wunderground v.1.15,2013-06-03 02:40:00,
2013-06-02 19:50:00,62.1,46.2,29.86,NNE,33,2.0,4.0,56,0.00,,,0.00,0,Wunderground v.1.15,2013-06-03 02:50:00,
2013-06-02 20:00:00,61.1,46.7,29.85,WSW,239,10.0,10.0,59,0.00,,,0.00,0,Wunderground v.1.15,2013-06-03 03:00:00,
2013-06-02 20:10:00,60.6,46.6,29.86,NNW,343,5.0,5.0,60,0.00,,,0.00,0,Wunderground v.1.15,2013-06-03 03:10:00,
2013-06-02 20:20:00,59.8,46.7,29.86,NNW,344,12.0,12.0,62,0.00,,,0.00,0,Wunderground v.1.15,2013-06-03 03:20:00,
2013-06-02 20:30:00,58.9,46.3,29.86,NNW,329,5.0,5.0,63,0.00,,,0.00,0,Wunderground v.1.15,2013-06-03 03:30:00,
2013-06-02 20:40:00,57.9,45.8,29.86,WNW,289,4.0,4.0,64,0.00,,,0.00,0,Wunderground v.1.15,2013-06-03 03:40:00,
2013-06-02 20:50:00,57.3,45.6,29.86,NNW,335,5.0,5.0,65,0.00,,,0.00,0,Wunderground v.1.15,2013-06-03 03:50:00,
2013-06-02 21:00:00,56.8,45.6,29.87,NW,313,7.0,7.0,66,0.00,,,0.00,0,Wunderground v.1.15,2013-06-03 04:00:00,
2013-06-02 21:05:00,56.7,45.9,29.87,North,3,5.0,7.0,67,0.00,,,0.00,0,Wunderground v.1.15,2013-06-03 04:05:00,
2013-06-02 21:10:00,56.5,45.7,29.87,NNW,342,7.0,7.0,67,0.00,,,0.00,0,Wunderground v.1.15,2013-06-03 04:10:00,
2013-06-02 21:20:00,56.0,45.6,29.87,WNW,299,7.0,7.0,68,0.00,,,0.00,0,Wunderground v.1.15,2013-06-03 04:20:00,
2013-06-02 21:30:00,55.7,45.7,29.88,NW,321,14.0,14.0,69,0.00,,,0.00,0,Wunderground v.1.15,2013-06-03 04:30:00,
2013-06-02 21:35:00,55.6,45.6,29.88,NNW,332,2.0,14.0,69,0.00,,,0.00,0,Wunderground v.1.15,2013-06-03 04:35:00,
2013-06-02 21:40:00,55.4,45.4,29.88,North,350,7.0,7.0,69,0.00,,,0.00,0,Wunderground v.1.15,2013-06-03 04:40:00,
2013-06-02 21:50:00,55.1,45.5,29.89,NNW,327,5.0,5.0,70,0.00,,,0.00,0,Wunderground v.1.15,2013-06-03 04:50:00,
2013-06-02 22:00:00,54.7,45.5,29.89,NW,313,4.0,4.0,71,0.00,,,0.00,0,Wunderground v.1.15,2013-06-03 05:00:00,
2013-06-02 22:05:00,54.3,45.5,29.89,West,278,3.0,4.0,72,0.00,,,0.00,0,Wunderground v.1.15,2013-06-03 05:05:00,
2013-06-02 22:15:00,53.8,45.3,29.90,West,275,5.0,5.0,73,0.00,,,0.00,0,Wunderground v.1.15,2013-06-03 05:15:00,
2013-06-02 22:20:00,53.5,45.1,29.90,NW,325,2.0,4.0,73,0.00,,,0.00,0,Wunderground v.1.15,2013-06-03 05:20:00,
2013-06-02 22:30:00,53.4,45.3,29.90,NNW,348,2.0,4.0,74,0.00,,,0.00,0,Wunderground v.1.15,2013-06-03 05:30:00,
2013-06-02 22:40:00,53.0,44.9,29.90,West,278,2.0,4.0,74,0.00,,,0.00,0,Wunderground v.1.15,2013-06-03 05:40:00,
2013-06-02 22:50:00,52.6,44.9,29.90,NNW,348,5.0,5.0,75,0.00,,,0.00,0,Wunderground v.1.15,2013-06-03 05:50:00,
2013-06-02 23:00:00,52.3,45.0,29.90,NNW,346,4.0,4.0,76,0.00,,,0.00,0,Wunderground v.1.15,2013-06-03 06:00:00,
2013-06-02 23:05:00,52.0,44.7,29.90,North,0,4.0,4.0,76,0.00,,,0.00,0,Wunderground v.1.15,2013-06-03 06:05:00,
2013-06-02 23:10:00,52.0,44.7,29.90,NNW,338,1.0,4.0,76,0.00,,,0.00,0,Wunderground v.1.15,2013-06-03 06:10:00,
2013-06-02 23:20:00,51.7,44.4,29.90,North,356,0.0,4.0,76,0.00,,,0.00,0,Wunderground v.1.15,2013-06-03 06:20:00,
2013-06-02 23:30:00,51.3,44.3,29.90,WNW,288,0.0,4.0,77,0.00,,,0.00,0,Wunderground v.1.15,2013-06-03 06:30:00,
2013-06-02 23:40:00,50.0,44.1,29.90,WNW,293,1.0,4.0,80,0.00,,,0.00,0,Wunderground v.1.15,2013-06-03 06:40:00,
2013-06-02 23:50:00,49.1,43.2,29.90,WNW,292,0.0,4.0,80,0.00,,,0.00,0,Wunderground v.1.15,2013-06-03 06:50:00,